Location: Parkway Village
(35.0643°N, 89.9062°W)
Time: 15:08:51
(UTC+00:00)

BlueWalker 3 - Pass Details

Date: 19 August 2024
Orbit: 475 x 487 km, 53.2° (Epoch: 17 September)

Event Time Altitude Azimuth Distance (km) Brightness Sun altitude
Rises 10:55:47 0° 319° (NW) 2,567 5.3 -6.1°
Reaches altitude 10° 10:58:01 10° 325° (NW) 1,683 4.5 -5.7°
Maximum altitude 11:01:42 48° 41° (NE) 644 3.0 -5.0°
Drops below altitude 10° 11:05:23 10° 117° (ESE) 1,673 5.3 -4.3°
Sets 11:07:35 0° 123° (ESE) 2,550 6.1 -3.9°
